World > North America > United States > Wisconsin   City of Sheboygan, Wisconsin
Hourly regional weather for Sheboygan, WisconsinSheboygan, Wisconsin Regional Hourly Weather

Sheboygan, Wisconsin Regional Weather

regional weather sheboygan, wiHOURLY REGIONAL WEATHER FOR SHEBOYGAN, WI
Lat: 43.75N, Lon: 87.72W 
Web Search
Sheboygan Weather Warning NWS WEATHER ALERT FOR THE SHEBOYGAN, WI AREA - WIND ADVISORY Issued: 1154 AM CST Mon Dec 6 2021 Sheboygan Weather Warning  

Our weather pages are very print friendly and they make great conversation starters.

Feedback


°F Click to change Sheboygan hourly weather to Imperial units.Click to change Sheboygan hourly weather to Metric units. °C
Sheboygan Weather Map
UTC Time: 12/6/2021, 20:55
Your Time:

Sheboygan, WI Regional Weather

Expires:202112062100;;014834
ASUS43 KMKX 062020
RWRWI 

WISCONSIN REGIONAL WEATHER ROUNDUP
NATIONAL WEATHER SERVICE MILWAUKEE/SULLIVAN WI
200 PM CST MON DEC 06 2021

NOTE: "FAIR" INDICATES FEW OR NO CLOUDS BELOW 12,000 FEET WITH NO
SIGNIFICANT WEATHER AND/OR OBSTRUCTIONS TO VISIBILITY.


WIZ051-052-058>065-066-070>072-062100-
SOUTHEAST WISCONSIN
  
CITY           SKY/WX    TMP DP  RH WIND       PRES   REMARKS
MILWAUKEE      PTSUNNY   31  14  49 W22G35    29.93R WCI  18          
WAUKESHA       PTSUNNY   25  14  63 W23G35    29.95R WCI  10          
MILWAUKEE/TIMM PTSUNNY   28  12  50 W25G38    29.93R WCI  14          
RACINE         CLOUDY    31  17  56 W15G36    29.94R WCI  20          
KENOSHA        CLOUDY    30  17  58 W25G38    29.94R WCI  16          
FOND DU LAC    MOSUNNY   25   9  50 NW16G32   29.95R WCI  12          
SHEBOYGAN      CLOUDY    24  14  65 W21G37    29.89R WCI   9          
WEST BEND      CLOUDY    23  14  68 W18G32    29.93R WCI   9          
JUNEAU         SUNNY     23   8  54 W18G26    29.97R WCI   8          
$$


SKY/WX - Weather  TMP - Temperature  DP - Dew Point  RH - Relative Humidity
WIND - Wind Direction/Speed PRES - Barometric Pressure VSB - Visibility
WCI - Wind Chill Index E13G22 Wind - East Wind 13 mph/Gusts of 22 mph